カタログに戻る

STARLINK-3975

運用中通信VLEO
NORAD 52620·PAYLOAD·🇺🇸 United States

打ち上げ May 14, 2022 から Cape Canaveral Space Force Station

Loading…

次のパス (今後24時間)

TLE

最新Source: CelesTrak SupGP

元期: Sep 15, 2026, 02:16 UTC

1 52620C 22052Y   26258.09493056  .00044400  00000+0  13473-2 0  2584
2 52620  53.1573 141.3313 0001320  83.6166 133.7282 15.33525951    19

AllMySatでSTARLINK-3975をリアルタイム追跡

Download on the App Store